Location: ??
(31.9467°N, 34.8903°E)
Time: 18:33:02
(UTC+00:00)

Cosmos 1745 Rocket - Pass Details

Date: 29 October 2020
Orbit: 953 x 997 km, 83.0° (Epoch: 30 November)

Event Time Altitude Azimuth Distance (km) Brightness Sun altitude
Rises 16:26:48 0° 352° (N) 3,697 7.1 -20.4°
Reaches altitude 10° 16:29:19 10° 352° (N) 2,751 6.4 -20.9°
Maximum altitude 16:35:38 80° 267° (W) 1,011 4.1 -22.3°
Drops below altitude 10° 16:41:58 10° 180° (S) 2,753 6.4 -23.6°
Sets 16:44:29 0° 179° (S) 3,700 7.1 -24.1°
